Date,TemperatureHighF,TemperatureAvgF,TemperatureLowF,DewpointHighF,DewpointAvgF,DewpointLowF,HumidityHigh,HumidityAvg,HumidityLow,PressureMaxIn,PressureMinIn,WindSpeedMaxMPH,WindSpeedAvgMPH,GustSpeedMaxMPH,PrecipitationSumIn
2013-1-1,34,26,19,25,17,12,76,68,54,30.24,30.07,22,9,22,0.00
2013-1-2,38,26,13,17,11,4,71,54,37,30.32,30.21,14,6,14,0.00
2013-1-3,38,27,19,12,7,2,60,43,29,30.30,30.11,24,11,24,0.00
2013-1-4,46,31,24,18,11,4,63,44,30,30.14,30.07,14,6,14,0.00
2013-1-5,43,32,27,20,17,13,68,54,36,30.26,30.10,14,6,14,0.00
2013-1-6,45,35,26,21,14,10,72,43,26,30.09,29.88,20,6,20,0.00
2013-1-7,46,36,26,23,19,16,73,52,30,29.95,29.69,17,4,17,0.00
2013-1-8,50,41,31,24,18,7,60,41,19,30.03,29.71,24,8,24,0.00
2013-1-9,56,46,33,26,21,16,57,38,21,30.01,29.73,22,8,22,0.00
2013-1-10,56,35,18,30,21,12,82,59,26,29.74,29.56,14,6,14,0.00
2013-1-11,18,11,8,12,7,4,89,84,70,30.12,29.74,15,5,15,0.00
2013-1-12,19,9,1,8,4,-2,87,79,55,30.13,30.08,13,4,13,0.00
2013-1-13,23,11,4,9,3,-3,78,70,53,30.18,30.11,21,6,21,0.00
2013-1-14,20,14,8,8,3,0,75,62,46,30.15,30.00,20,11,20,0.00
2013-1-15,35,25,18,23,16,8,79,68,57,30.13,29.99,26,13,26,0.00
2013-1-16,52,37,27,25,20,16,69,50,29,30.31,30.08,24,9,24,0.00
2013-1-17,46,36,27,22,18,16,62,49,37,30.33,30.02,23,11,23,0.00
2013-1-18,60,43,35,19,15,1,47,34,10,30.05,29.91,18,8,18,0.00
2013-1-19,44,34,20,26,19,13,93,57,28,30.26,30.03,15,4,15,0.00
2013-1-20,36,23,14,21,15,10,82,73,51,30.43,30.11,15,4,15,0.00
2013-1-21,33,20,11,18,12,8,90,75,50,30.28,30.02,8,2,8,0.00
2013-1-22,49,34,14,18,14,10,90,47,24,30.08,30.01,13,5,13,0.00
2013-1-23,28,22,16,18,15,12,86,74,58,30.20,29.94,8,2,8,0.00
2013-1-24,55,37,18,26,20,14,85,53,29,30.11,29.88,26,4,26,0.00
2013-1-25,55,38,22,27,23,17,86,57,30,30.11,29.94,13,4,13,0.00
2013-1-26,68,45,34,29,25,21,69,48,17,29.95,29.72,14,3,14,0.00
2013-1-27,38,32,28,34,29,24,98,89,65,29.87,29.73,10,2,10,0.00
2013-1-28,43,31,25,29,20,9,98,69,28,29.89,29.75,14,3,14,0.04
2013-1-29,29,20,5,20,10,-1,80,66,48,30.17,29.73,17,5,17,0.00
2013-1-30,40,23,8,28,17,3,95,80,48,30.06,29.83,21,5,21,0.01
2013-1-31,30,16,1,24,11,-2,93,81,64,30.21,30.00,17,5,17,0.00
2013-2-1,50,38,30,34,27,23,81,64,38,30.20,29.99,19,7,19,0.00
2013-2-2,57,39,24,28,22,18,78,53,26,30.28,30.15,27,7,27,0.00
2013-2-3,58,40,31,24,19,2,66,45,11,30.15,29.93,20,8,20,0.00
2013-2-4,55,42,32,26,22,14,61,47,21,29.94,29.82,21,7,21,0.00
2013-2-5,54,42,31,27,25,22,75,52,34,29.98,29.76,13,5,13,0.00
2013-2-6,55,40,31,29,18,7,71,44,16,30.08,29.77,16,5,16,0.00
2013-2-7,49,36,25,23,19,16,78,53,29,30.10,29.92,9,2,9,0.00
2013-2-8,50,34,24,24,19,15,79,57,25,29.97,29.88,6,2,6,0.00
2013-2-9,50,34,22,31,23,18,89,66,31,29.93,29.80,12,3,12,0.00
2013-2-10,30,25,14,28,20,13,95,82,59,30.14,29.93,19,5,19,0.00
2013-2-11,35,24,14,19,13,9,94,65,48,30.12,29.94,21,11,21,0.00
2013-2-12,47,31,22,21,14,9,61,50,32,30.07,29.89,17,10,17,0.00
2013-2-13,53,36,28,35,24,15,92,63,29,30.14,29.88,25,10,25,0.00
2013-2-14,36,29,26,26,19,12,93,69,37,30.32,30.14,17,7,17,0.00
2013-2-15,47,33,24,30,24,21,96,72,46,30.34,30.13,17,6,17,0.02
2013-2-16,55,40,28,25,22,20,73,50,29,30.14,29.76,21,10,21,0.00
2013-2-17,49,38,29,29,23,15,80,57,27,29.99,29.69,20,8,20,0.00
2013-2-18,47,30,17,26,20,14,92,68,34,30.12,29.99,10,3,10,0.00
2013-2-19,33,21,13,21,16,11,93,79,55,30.04,29.80,7,2,7,0.00
2013-2-20,35,25,16,21,17,14,92,74,50,29.93,29.82,9,3,9,0.00
2013-2-21,50,30,20,28,21,17,93,71,31,29.98,29.89,14,2,14,0.01
2013-2-22,47,34,25,20,16,7,75,51,21,29.95,29.67,17,9,17,0.00
2013-2-23,42,34,29,33,22,13,95,65,32,30.00,29.62,17,6,17,0.01
2013-2-24,49,35,24,25,18,11,80,53,24,30.15,30.00,14,6,14,0.00
2013-2-25,50,38,28,23,15,9,63,41,19,30.02,29.81,20,9,20,0.00
2013-2-26,49,36,26,22,16,7,73,47,21,30.22,29.92,18,7,18,0.00
2013-2-27,51,36,20,21,15,6,81,46,18,30.23,30.14,14,5,14,0.00
2013-2-28,53,38,28,20,16,11,63,42,19,30.26,30.15,19,6,19,0.00
2013-3-1,66,45,29,28,23,17,61,42,20,30.25,30.15,21,8,21,0.00
2013-3-2,67,50,38,28,27,21,62,42,18,30.20,29.89,18,6,18,0.00
2013-3-3,58,39,25,33,28,17,98,66,35,29.89,29.58,27,4,27,0.01
2013-3-4,35,23,12,17,14,8,83,69,42,30.34,29.89,24,10,24,0.00
2013-3-5,37,22,6,22,14,3,90,73,46,30.32,30.05,6,2,6,0.00
2013-3-6,41,27,14,25,20,11,92,75,48,30.06,29.76,7,2,7,0.00
2013-3-7,59,42,26,29,21,1,91,54,10,30.05,29.80,17,4,17,0.00
2013-3-8,53,38,29,29,26,23,84,65,38,30.04,29.88,8,2,8,0.00
2013-3-9,51,36,23,28,19,11,94,56,21,30.25,29.94,22,6,22,0.00
2013-3-10,65,42,18,25,14,3,88,42,10,30.23,29.99,15,5,15,0.00
2013-3-11,55,39,30,27,21,13,64,48,26,30.30,29.99,22,7,22,0.00
2013-3-12,51,36,23,24,20,14,92,57,25,30.30,30.03,11,4,11,0.00
2013-3-13,72,54,37,26,21,13,51,31,11,30.12,30.04,23,7,23,0.00
2013-3-14,72,56,41,30,24,11,59,33,11,30.15,29.94,19,4,19,0.00
2013-3-15,69,54,34,29,22,8,77,34,10,30.09,29.89,24,7,24,0.00
2013-3-16,53,36,24,29,26,22,94,70,37,30.08,29.71,10,3,10,0.00
2013-3-17,48,34,20,33,17,-7,93,57,10,29.95,29.53,25,8,25,0.00
2013-3-18,47,29,12,18,9,-9,81,49,10,29.99,29.83,24,6,24,0.00
2013-3-19,45,30,21,26,19,15,92,64,33,30.28,29.99,9,3,9,0.01
2013-3-20,64,37,15,21,16,9,87,50,13,30.19,29.60,9,2,9,0.00
2013-3-21,42,35,31,29,23,18,65,59,49,29.63,29.58,14,5,15,0.00
2013-3-23,39,39,38,4,-5,-5,23,15,15,30.31,30.21,11,7,11,0.00
2013-3-24,39,39,39,-5,-5,-5,15,15,15,30.31,30.31,7,7,11,0.00
2013-3-25,39,39,39,-5,-5,-5,15,15,15,30.31,30.31,7,7,11,0.00
2013-3-26,39,39,39,-5,-5,-5,15,15,15,30.31,30.31,7,7,11,0.00
2013-3-27,39,39,39,-5,-5,-5,15,15,15,30.31,30.31,7,7,11,0.00
2013-3-28,39,39,39,-5,-5,-5,15,15,15,30.31,30.31,7,7,11,0.00
2013-3-29,39,39,39,-5,-5,-5,15,15,15,30.31,30.31,7,7,11,0.00
2013-3-30,39,39,39,-5,-5,-5,15,15,15,30.31,30.31,7,7,11,0.00
2013-3-31,39,39,39,-5,-5,-5,15,15,15,30.31,30.31,7,7,11,0.00
2013-4-1,39,39,39,-5,-5,-5,15,15,15,30.31,30.31,7,7,11,0.00
2013-4-2,39,39,39,-5,-5,-5,15,15,15,30.31,30.31,7,7,11,0.00
2013-4-3,39,39,39,-5,-5,-5,15,15,15,30.31,30.31,7,7,11,0.00
2013-4-4,39,39,39,-5,-5,-5,15,15,15,30.31,30.31,7,7,11,0.00
2013-4-5,39,39,39,-5,-5,-5,15,15,15,30.31,30.31,7,7,11,0.00
2013-4-6,70,50,39,40,15,-5,74,29,12,30.31,29.90,19,7,19,0.02
2013-4-7,66,50,34,42,36,28,98,64,24,29.96,29.72,14,3,14,0.00
2013-4-8,34,24,19,33,21,17,98,89,77,30.43,29.87,17,1,17,0.00
2013-4-9,39,26,17,21,16,9,94,70,37,30.54,30.42,7,1,7,0.00
2013-4-10,56,35,16,31,20,12,91,58,29,30.42,29.95,12,3,12,0.00
2013-4-11,61,48,36,35,30,22,79,53,24,30.08,29.90,26,9,26,0.00
2013-4-12,59,44,34,35,25,8,90,51,14,30.20,29.89,17,6,17,0.00
2013-4-13,53,39,36,40,30,22,95,71,45,29.89,29.58,21,5,21,0.00
2013-4-14,36,33,29,24,21,19,75,63,50,29.85,29.77,16,9,16,0.00